Erie, PA

11:42 PM EDT on March 23, 2017 (GMT -0400)
Erie International

Weather History for KERI - March, 2013

Change the Weather History Date:

Wednesday, March 13, 2013

  Actual Average Record
Temperature  
Mean Temperature 30 °F 34 °F  
Max Temperature 34 °F 43 °F 72 °F (2007)
Min Temperature 26 °F 26 °F 2 °F (1885)
Degree Days  
Heating Degree Days 35 31  
Month to date heating degree days 405 423  
Since 1 July heating degree days 4499 4788  
Cooling Degree Days 0 0  
Month to date cooling degree days 0 0  
Year to date cooling degree days 0 0  
Moisture  
Dew Point 23 °F    
Average Humidity 66    
Maximum Humidity 85    
Minimum Humidity 47    
Precipitation  
Precipitation 0.03 in 0.09 in 1.08 in (1972)
Month to date precipitation 0.79 1.17  
Year to date precipitation 7.30 6.51  
Snow  
Snow 0.90 in 0.50 in - ()
Month to date snowfall 5.0 7.0  
Since 1 July snowfall 84.2 91.0  
Snow Depth 0.00 in    
Sea Level Pressure  
Sea Level Pressure 29.95 in    
Wind  
Wind Speed 14 mph (WSW)    
Max Wind Speed 25 mph    
Max Gust Speed 36 mph    
Visibility 5 miles    
Events Fog , Snow    
T = Trace of Precipitation, MM = Missing Value Source: NWS Daily Summary

Daily Weather History Graph

Daily Weather History Graph

Search for Another Location

Airport or City:

Trip Planner

Search our weather history database for the weather conditions in past years. The results will help you decide how hot, cold, wet, or windy it might be!

Date:

Astronomy

Mar. 13, 2013 Rise Set
Actual Time 7:35 AM EDT 7:25 PM EDT
Civil Twilight 7:07 AM EDT 7:53 PM EDT
Nautical Twilight 6:35 AM EDT 8:25 PM EDT
Astronomical Twilight 6:02 AM EDT 8:58 PM EDT
Moon 8:11 AM EDT (3/13) 9:43 PM EDT (3/13)
Length of Visible Light 12h 45m
Length of Day
11h 49m
Waxing Crescent, 4% of the Moon is Illuminated
Mar 13
Waxing Crescent
Mar 19
First Quarter
Mar 27
Full
Apr 3
Last Quarter
Apr 10
New

Hourly Weather History & Observations

Time (EDT) Temp. Windchill Dew Point Humidity Pressure Visibility Wind Dir Wind Speed Gust Speed Precip Events Conditions
12:51 AM 33.8 °F 27.7 °F 23.0 °F 65% 29.93 in 10.0 mi SW 6.9 mph - N/A   Overcast
1:51 AM 33.1 °F 26.9 °F 23.0 °F 66% 29.94 in 10.0 mi SW 6.9 mph - N/A   Overcast
2:51 AM 32.0 °F 25.6 °F 23.0 °F 69% 29.94 in 10.0 mi SSW 6.9 mph - N/A   Clear
3:51 AM 32.0 °F 25.6 °F 24.1 °F 73% 29.91 in 10.0 mi SW 6.9 mph - N/A   Mostly Cloudy
4:51 AM 32.0 °F 25.6 °F 24.1 °F 73% 29.90 in 10.0 mi SW 6.9 mph - N/A   Mostly Cloudy
5:51 AM 32.0 °F 25.6 °F 25.0 °F 75% 29.89 in 10.0 mi SW 6.9 mph - N/A   Overcast
6:31 AM 32.0 °F 24.2 °F 24.8 °F 75% 29.87 in 6.0 mi SSW 9.2 mph - 0.00 in Snow Light Snow
6:51 AM 32.0 °F 24.8 °F 26.1 °F 79% 29.89 in 10.0 mi SSW 8.1 mph - 0.00 in   Overcast
7:19 AM 32.0 °F 23.6 °F 26.6 °F 80% 29.86 in 10.0 mi SSW 10.4 mph - N/A   Overcast
7:51 AM 32.0 °F 24.8 °F 24.8 °F 75% 29.87 in 10.0 mi SW 8.1 mph - N/A   Mostly Cloudy
8:51 AM 32.0 °F 23.6 °F 25.0 °F 75% 29.89 in 9.0 mi SW 10.4 mph - N/A   Overcast
9:17 AM 32.0 °F 24.2 °F 26.6 °F 80% 29.87 in 2.0 mi SW 9.2 mph 18.4 mph 0.00 in Snow Light Snow
9:26 AM 32.0 °F 22.1 °F 26.6 °F 80% 29.87 in 3.0 mi SW 13.8 mph 19.6 mph 0.00 in Snow Light Snow
9:30 AM 30.2 °F 19.3 °F 26.6 °F 86% 29.87 in 0.8 mi WSW 15.0 mph 23.0 mph 0.00 in Snow Light Snow
9:33 AM 30.2 °F 20.2 °F 26.6 °F 86% 29.88 in 0.5 mi WSW 12.7 mph 23.0 mph 0.00 in Snow Snow
9:43 AM 30.2 °F 21.3 °F 26.6 °F 86% 29.88 in 1.2 mi WSW 10.4 mph 19.6 mph 0.01 in Snow Light Snow
9:45 AM 30.2 °F 21.9 °F 26.6 °F 86% 29.88 in 5.0 mi WSW 9.2 mph - 0.01 in Snow Light Snow
9:51 AM 30.9 °F 22.2 °F 26.1 °F 82% 29.91 in 5.0 mi WSW 10.4 mph 18.4 mph 0.01 in   Overcast
9:59 AM 30.2 °F 19.3 °F 26.6 °F 86% 29.88 in 2.5 mi WSW 15.0 mph 20.7 mph 0.00 in Snow Light Snow
10:02 AM 30.2 °F 20.8 °F 26.6 °F 86% 29.88 in 1.5 mi WSW 11.5 mph 20.7 mph 0.00 in Snow Light Snow
10:11 AM 30.2 °F 19.3 °F 24.8 °F 80% 29.88 in 2.0 mi SW 15.0 mph 25.3 mph 0.00 in Snow Light Snow
10:19 AM 30.2 °F 16.8 °F 24.8 °F 80% 29.88 in 3.0 mi West 23.0 mph 32.2 mph 0.00 in Snow Light Snow
10:23 AM 30.2 °F 17.8 °F 24.8 °F 80% 29.89 in 1.8 mi WSW 19.6 mph 35.7 mph 0.00 in Snow Light Snow
10:26 AM 30.2 °F 17.8 °F 24.8 °F 80% 29.89 in 0.8 mi WSW 19.6 mph 35.7 mph 0.00 in Snow Light Snow
10:33 AM 30.2 °F 18.1 °F 26.6 °F 86% 29.89 in 0.5 mi WSW 18.4 mph 32.2 mph 0.00 in Fog , Snow Snow
10:45 AM 28.4 °F 16.6 °F 24.8 °F 86% 29.90 in 1.0 mi West 16.1 mph 32.2 mph 0.00 in Snow Light Snow
10:46 AM 28.9 °F 16.9 °F 25.0 °F 85% 29.93 in 1.0 mi West 17.3 mph 32.2 mph 0.00 in Snow Light Snow
11:01 AM 30.2 °F 19.8 °F 26.6 °F 86% 29.91 in 2.5 mi West 13.8 mph 24.2 mph 0.00 in Snow Light Snow
11:09 AM 30.2 °F 18.5 °F 24.8 °F 80% 29.91 in 6.0 mi West 17.3 mph 23.0 mph 0.00 in Snow Light Snow
11:19 AM 30.2 °F 19.3 °F 24.8 °F 80% 29.91 in 3.0 mi West 15.0 mph 25.3 mph 0.00 in Snow Light Snow
11:34 AM 30.2 °F 18.9 °F 24.8 °F 80% 29.92 in 2.5 mi West 16.1 mph 24.2 mph 0.00 in Snow Light Snow
11:47 AM 30.2 °F 21.9 °F 24.8 °F 80% 29.92 in 3.0 mi West 9.2 mph 20.7 mph 0.00 in Snow Light Snow
11:51 AM 30.0 °F 20.0 °F 26.1 °F 85% 29.95 in 3.0 mi West 12.7 mph 20.7 mph 0.00 in Snow Light Snow
12:06 PM 30.2 °F 18.9 °F 24.8 °F 80% 29.92 in 10.0 mi West 16.1 mph 23.0 mph 0.00 in   Overcast
12:13 PM 30.2 °F 18.1 °F 24.8 °F 80% 29.92 in 10.0 mi West 18.4 mph 23.0 mph 0.00 in   Overcast
12:51 PM 32.0 °F 21.2 °F 23.0 °F 69% 29.95 in 10.0 mi West 16.1 mph 27.6 mph 0.00 in   Overcast
1:20 PM 30.2 °F 20.2 °F 23.0 °F 75% 29.93 in 2.5 mi West 12.7 mph 20.7 mph 0.00 in Snow Light Snow
1:27 PM 30.2 °F 20.2 °F 24.8 °F 80% 29.94 in 0.8 mi West 12.7 mph 18.4 mph 0.00 in Snow Light Snow
1:35 PM 28.4 °F 17.5 °F 24.8 °F 86% 29.94 in 0.2 mi West 13.8 mph 21.9 mph 0.00 in Fog , Snow Snow
1:43 PM 28.4 °F 18.0 °F 24.8 °F 86% 29.94 in 1.0 mi West 12.7 mph 21.9 mph 0.01 in Snow Light Snow
1:47 PM 28.4 °F 19.1 °F 24.8 °F 86% 29.94 in 1.5 mi WSW 10.4 mph 20.7 mph 0.01 in Snow Light Snow
1:51 PM 28.9 °F 17.7 °F 25.0 °F 85% 29.97 in 1.0 mi West 15.0 mph 20.7 mph 0.01 in Snow Light Snow
1:55 PM 28.4 °F 17.0 °F 24.8 °F 86% 29.94 in 0.5 mi West 15.0 mph 20.7 mph 0.00 in Fog , Snow Snow
2:08 PM 28.4 °F 17.5 °F 24.8 °F 86% 29.94 in 1.0 mi West 13.8 mph 24.2 mph 0.01 in Snow Light Snow
2:10 PM 28.4 °F 17.0 °F 23.0 °F 80% 29.95 in 2.5 mi West 15.0 mph 24.2 mph 0.01 in Snow Light Snow
2:17 PM 30.2 °F 18.5 °F 21.2 °F 69% 29.95 in 10.0 mi West 17.3 mph 26.5 mph 0.01 in   Overcast
2:30 PM 30.2 °F 16.8 °F 17.6 °F 60% 29.95 in 10.0 mi West 23.0 mph 29.9 mph 0.01 in   Overcast
2:51 PM 30.0 °F 16.9 °F 18.0 °F 61% 29.98 in 10.0 mi West 21.9 mph 27.6 mph 0.01 in   Overcast
3:51 PM 28.9 °F 17.3 °F 17.1 °F 61% 29.99 in 8.0 mi West 16.1 mph 35.7 mph 0.00 in Snow Light Snow
4:30 PM 28.4 °F 17.0 °F 21.2 °F 74% 29.98 in 2.5 mi West 15.0 mph 26.5 mph 0.00 in Snow Light Snow
4:44 PM 28.4 °F 16.2 °F 19.4 °F 69% 29.98 in 7.0 mi West 17.3 mph 26.5 mph 0.00 in Snow Light Snow
4:51 PM 28.0 °F 17.0 °F 19.9 °F 72% 30.01 in 10.0 mi West 13.8 mph 24.2 mph 0.00 in   Overcast
5:03 PM 26.6 °F 13.8 °F 19.4 °F 74% 29.99 in 2.5 mi West 17.3 mph 27.6 mph 0.00 in Snow Light Snow
5:11 PM 28.4 °F 16.6 °F 19.4 °F 69% 29.99 in 8.0 mi West 16.1 mph 24.2 mph 0.00 in Snow Light Snow
5:19 PM 26.6 °F 14.3 °F 19.4 °F 74% 29.99 in 1.8 mi West 16.1 mph 25.3 mph 0.00 in Snow Light Snow
5:34 PM 26.6 °F 15.2 °F 21.2 °F 80% 29.99 in 2.5 mi West 13.8 mph 21.9 mph 0.00 in Snow Light Snow
5:37 PM 26.6 °F 14.3 °F 21.2 °F 80% 29.99 in 4.0 mi West 16.1 mph 24.2 mph 0.00 in Snow Light Snow
5:51 PM 27.0 °F 15.2 °F 21.0 °F 78% 30.03 in 3.0 mi WSW 15.0 mph 25.3 mph 0.00 in Snow Light Snow
5:54 PM 26.6 °F 13.8 °F 21.2 °F 80% 30.00 in 2.0 mi West 17.3 mph 26.5 mph 0.00 in Snow Light Snow
6:08 PM 26.6 °F 13.8 °F 21.2 °F 80% 30.00 in 1.2 mi West 17.3 mph 24.2 mph 0.00 in Snow Light Snow
6:15 PM 26.6 °F 16.8 °F 21.2 °F 80% 30.00 in 3.0 mi West 10.4 mph 24.2 mph 0.00 in Snow Light Snow
6:26 PM 26.6 °F 14.7 °F 21.2 °F 80% 30.01 in 2.0 mi WNW 15.0 mph 27.6 mph 0.00 in Snow Light Snow
6:29 PM 26.6 °F 14.3 °F 21.2 °F 80% 30.01 in 3.0 mi WNW 16.1 mph 26.5 mph 0.00 in Snow Light Snow
6:42 PM 26.6 °F 14.7 °F 19.4 °F 74% 30.01 in 10.0 mi West 15.0 mph 28.8 mph 0.00 in   Overcast
6:51 PM 27.0 °F 15.2 °F 19.9 °F 75% 30.04 in 10.0 mi WNW 15.0 mph 23.0 mph 0.00 in   Overcast
7:41 PM 26.6 °F 13.1 °F 17.6 °F 69% 30.03 in 10.0 mi West 19.6 mph 26.5 mph 0.00 in   Overcast
7:51 PM 27.0 °F 16.1 °F 18.0 °F 69% 30.06 in 10.0 mi West 12.7 mph 28.8 mph 0.00 in   Overcast
8:11 PM 28.4 °F 16.2 °F 19.4 °F 69% 30.04 in 10.0 mi WNW 17.3 mph 27.6 mph N/A   Mostly Cloudy
8:18 PM 28.4 °F 17.0 °F 17.6 °F 64% 30.04 in 10.0 mi WNW 15.0 mph 27.6 mph N/A   Overcast
8:51 PM 28.0 °F 15.3 °F 17.1 °F 63% 30.07 in 10.0 mi West 18.4 mph 23.0 mph N/A   Mostly Cloudy
9:51 PM 30.0 °F 17.2 °F 19.0 °F 64% 30.06 in 10.0 mi West 20.7 mph 28.8 mph N/A   Overcast
10:51 PM 30.9 °F 18.7 °F 15.1 °F 52% 30.08 in 10.0 mi WNW 19.6 mph 31.1 mph N/A   Overcast
11:51 PM 30.0 °F 17.9 °F 12.9 °F 49% 30.09 in 10.0 mi WNW 18.4 mph 33.4 mph N/A   Overcast